{"data":{"norad_id":45543,"intl_designator":"2020-025N","name":"STARLINK-1372","alt_names":[],"object_type":"PAYLOAD","status":"ACTIVE","operator":null,"country":"US","launch_date":"2020-04-22","launch_site_code":"AFETR","launch_vehicle":null,"mission":null,"orbit_class":"UNKNOWN","rcs_meters":null,"size_class":null,"mass_kg":null,"dimensions":null,"purposes":["comms"],"wikipedia_slug":null,"has_3d_model":false,"image_url":null,"decayed_at":null,"tle_current":{"epoch":"2026-05-25T04:25:33.716064Z","epoch_age_seconds":62644,"freshness":"FRESH","line1":"1 45543U 20025N   26145.18441801  .00044312  00000+0  12324-2 0  9992","line2":"2 45543  53.1566 104.2197 0004298  63.8489 296.2956 15.36424986336003","mean_motion":15.36424986,"eccentricity":0.0004298,"inclination_deg":53.1566,"raan_deg":104.2197,"arg_perigee_deg":63.8489,"mean_anomaly_deg":296.2956,"bstar":0.0012324,"rev_number":33600,"period_min":93.724068088021,"perigee_km":453.75355734144,"apogee_km":459.62877563335,"semimajor_km":6834.8281664874,"source":"CELESTRAK","updated_at":"2026-05-25T13:38:16.422150Z"}}}